Powrót do katalogu

STARLINK-34078

AktywnyŁącznośćVLEO
NORAD 64012·PAYLOAD·🇺🇸 United States

Wystrzelony May 14, 2025 z Cape Canaveral Space Force Station

Loading…

Następne Przeloty (najbliższe 24 godziny)

TLE

ŚwieżeSource: CelesTrak SupGP

Epoka: Sep 14, 2026, 22:30 UTC

1 64012C 25101U   26257.93798611 -.00014252  00000+0 -51623-3 0  2570
2 64012  43.0038   8.9128 0001468 271.9548   9.5505 15.27583954    10

Śledź STARLINK-34078 w czasie rzeczywistym z AllMySat

Download on the App Store